Tracking 19485 objects as of 21-Jan-2019
HD Live streaming from Space Station
objects crossing your sky now

ASTRA 1H

Track ASTRA 1H now!
ASTRA 1H is classified as:


NORAD ID: 25785
Int'l Code: 1999-033A
Perigee: 35,752.8 km
Apogee: 35,757.6 km
Inclination: 4.9 °
Period: 1,434.1 minutes
Semi major axis: 42126 km
RCS: 0.8136 m2 (medium)
Launch date: June 18, 1999
Source: SOCIETE EUROPEENNE DES SATELLITES (SES)
Launch site: TYURATAM MISSILE AND SPACE COMPLEX (TTMTR)

Direct-to-home tv; multimedia; broadcasting; 32 Ku-band for first five years, 28 after; Europe
aabbcc
Your satellite tracking list
Your tracking list is empty




NASA's NSSDC Master Catalog

Two Line Element Set (TLE):
1 25785U 99033A   19020.55231128 -.00000266 +00000-0 +00000-0 0  9995
2 25785 004.9425 066.5978 0000569 145.0860 030.9450 01.00409445024293
Source of the keplerian elements: AFSPC